Location: Finnegan
(51.1333°N, 112.0833°W)
Time: 10:28:55
(UTC+00:00)

Envisat - Pass Details

Date: 08 December 2021
Orbit: 764 x 766 km, 98.2° (Epoch: 24 January)

Event Time Altitude Azimuth Distance (km) Brightness Sun altitude
Rises 00:59:56 0° 215° (SW) 3,224 7.1 -14.5°
Reaches altitude 10° 01:03:11 10° 237° (WSW) 2,304 6.7 -14.9°
Maximum altitude 01:06:10 16° 273° (W) 1,948 6.1 -15.4°
Drops below altitude 10° 01:09:10 10° 310° (NW) 2,314 5.9 -15.8°
Sets 01:12:28 0° 332° (NNW) 3,247 6.4 -16.3°
